Location: Newark
(34.6283°N, 36.0776°E)
Time: 04:31:14
(UTC+00:00)

Courier 1B Rocket - Pass Details

Date: 17 September 2019
Orbit: 920 x 1202 km, 28.2° (Epoch: 17 October)

Event Time Altitude Azimuth Distance (km) Brightness Sun altitude
Rises 16:04:01 0° 259° (W) 3,819 9.8 -5.7°
Reaches altitude 10° 16:06:53 10° 254° (WSW) 2,821 8.7 -6.3°
Maximum altitude 16:13:25 50° 181° (S) 1,233 5.5 -7.6°
Enters shadow 16:19:31 10° 108° (ESE) 2,641 6.6 -8.8°
